﻿_id,日時,平均風速(m/s),平均風向,最大瞬間風速(m/s),最大風速時風向,気温(℃),湿度(%),10分間移動積算雨量(mm),1時間移動積算雨量(mm),日雨量(mm),累計雨量(mm),日射(日積算)(MJ/m2),日照(日積算)(min),現地気圧(hPa),海面気圧(hPa)
1,2021-05-24T00:00:00,1.4,西,3,西,18.6,90.2,0,0,0,0,25.8,492,997.9,1011.5
2,2021-05-24T00:01:00,1.4,西,3,西,18.3,89.6,0,0,0,0,0,0,997.9,1011.5
3,2021-05-24T00:02:00,1.3,西,3,西,18.3,89.4,0,0,0,0,0,0,998,1011.6
4,2021-05-24T00:03:00,1.3,西,3,西,18.3,89.2,0,0,0,0,0,0,998,1011.6
5,2021-05-24T00:04:00,1.3,西,3,西,18.3,89.7,0,0,0,0,0,0,998,1011.6
6,2021-05-24T00:05:00,1.1,西,2.7,西,18.4,90,0,0,0,0,0,0,998,1011.6
7,2021-05-24T00:06:00,1,西,2.2,西南西,18.6,90.2,0,0,0,0,0,0,997.9,1011.5
8,2021-05-24T00:07:00,1,西,2.2,西南西,18.5,89.9,0,0,0,0,0,0,997.9,1011.5
9,2021-05-24T00:08:00,1,西,2.2,西南西,18.7,89.6,0,0,0,0,0,0,997.9,1011.5
10,2021-05-24T00:09:00,1.1,西,2.3,西,18.7,89.3,0,0,0,0,0,0,997.9,1011.5
11,2021-05-24T00:10:00,1.3,西,3.5,西北西,18.5,88.3,0,0,0,0,0,0,997.8,1011.4
12,2021-05-24T00:11:00,1.5,西,3.5,西北西,18.6,87.8,0,0,0,0,0,0,997.8,1011.4
13,2021-05-24T00:12:00,1.6,西,3.5,西北西,18.5,87.4,0,0,0,0,0,0,997.8,1011.4
14,2021-05-24T00:13:00,1.6,西,3.5,西北西,18.7,87.9,0,0,0,0,0,0,997.9,1011.5
15,2021-05-24T00:14:00,1.7,西,3.5,西北西,18.6,87.6,0,0,0,0,0,0,997.9,1011.5
16,2021-05-24T00:15:00,1.7,西,3.5,西北西,18.3,87,0,0,0,0,0,0,997.9,1011.5
17,2021-05-24T00:16:00,1.8,西,3.5,西北西,18.2,87.2,0,0,0,0,0,0,997.8,1011.4
18,2021-05-24T00:17:00,1.8,西,3.5,西北西,18.2,87.9,0,0,0,0,0,0,997.9,1011.5
19,2021-05-24T00:18:00,1.7,西,3.5,西北西,18.2,88.2,0,0,0,0,0,0,997.8,1011.4
20,2021-05-24T00:19:00,1.6,西,3.5,西北西,18.2,88.8,0,0,0,0,0,0,997.8,1011.4
21,2021-05-24T00:20:00,1.4,西,3.5,西北西,18.4,89.2,0,0,0,0,0,0,997.8,1011.4
22,2021-05-24T00:21:00,1.2,西,2.9,西,18.6,89.6,0,0,0,0,0,0,997.8,1011.4
23,2021-05-24T00:22:00,1.1,西,2.5,西,18.7,89.2,0,0,0,0,0,0,997.8,1011.4
24,2021-05-24T00:23:00,1,西,2.5,西,18.5,88.5,0,0,0,0,0,0,997.8,1011.4
25,2021-05-24T00:24:00,0.9,西,2.5,西,18.3,87.6,0,0,0,0,0,0,997.8,1011.4
26,2021-05-24T00:25:00,0.9,西,2.5,西,18.4,88,0,0,0,0,0,0,997.8,1011.4
27,2021-05-24T00:26:00,0.8,西,1.8,西,18.4,88,0,0,0,0,0,0,997.8,1011.4
28,2021-05-24T00:27:00,0.7,西,1.4,西,18.2,88.2,0,0,0,0,0,0,997.8,1011.4
29,2021-05-24T00:28:00,0.7,西,1.4,西,18.1,87.9,0,0,0,0,0,0,997.8,1011.4
30,2021-05-24T00:29:00,0.7,西,1.2,西,18.1,88.4,0,0,0,0,0,0,997.8,1011.4
31,2021-05-24T00:30:00,0.6,西南西,1.1,西南西,18,88.7,0,0,0,0,0,0,997.8,1011.4
32,2021-05-24T00:31:00,0.6,西南西,1.1,西南西,18.1,88.9,0,0,0,0,0,0,997.8,1011.4
33,2021-05-24T00:32:00,0.5,西南西,1.1,西南西,18.1,89.5,0,0,0,0,0,0,997.8,1011.4
34,2021-05-24T00:33:00,0.5,西南西,1.1,西南西,18,89.3,0,0,0,0,0,0,997.8,1011.4
35,2021-05-24T00:34:00,0.5,南西,1.1,西南西,18.4,89.9,0,0,0,0,0,0,997.8,1011.4
36,2021-05-24T00:35:00,0.5,南西,1.1,西南西,18.5,90.4,0,0,0,0,0,0,997.7,1011.3
37,2021-05-24T00:36:00,0.4,南南西,1.1,西南西,18.3,89.3,0,0,0,0,0,0,997.7,1011.3
38,2021-05-24T00:37:00,0.5,南南西,1.1,西南西,18.3,89,0,0,0,0,0,0,997.7,1011.3
39,2021-05-24T00:38:00,0.5,南南西,1,南,18.3,89.4,0,0,0,0,0,0,997.7,1011.3
40,2021-05-24T00:39:00,0.5,南南西,1,南,18.4,89.3,0,0,0,0,0,0,997.7,1011.3
41,2021-05-24T00:40:00,0.5,南南西,1,南,18.4,89.5,0,0,0,0,0,0,997.6,1011.2
42,2021-05-24T00:41:00,0.6,南南西,1.7,南南西,18.6,89.4,0,0,0,0,0,0,997.6,1011.2
43,2021-05-24T00:42:00,0.6,南南西,1.7,南南西,18.6,89.2,0,0,0,0,0,0,997.6,1011.2
44,2021-05-24T00:43:00,0.7,南南西,1.7,南南西,18.6,88.7,0,0,0,0,0,0,997.5,1011.1
45,2021-05-24T00:44:00,0.7,南南西,1.7,南南西,18.6,88.5,0,0,0,0,0,0,997.5,1011.1
46,2021-05-24T00:45:00,0.7,南南西,1.7,南南西,18.4,88.1,0,0,0,0,0,0,997.5,1011.1
47,2021-05-24T00:46:00,0.7,南南西,1.7,南南西,18.3,87.8,0,0,0,0,0,0,997.4,1011
48,2021-05-24T00:47:00,0.7,南南西,1.7,南南西,18.3,88.1,0,0,0,0,0,0,997.4,1011
49,2021-05-24T00:48:00,0.8,南南西,2.2,南南西,18.3,88.4,0,0,0,0,0,0,997.4,1011
50,2021-05-24T00:49:00,0.9,南南西,2.7,南南西,18.3,88.4,0,0,0,0,0,0,997.3,1010.9
51,2021-05-24T00:50:00,1,南南西,2.7,南南西,18.3,88.7,0,0,0,0,0,0,997.4,1011
52,2021-05-24T00:51:00,1,南南西,2.7,南南西,18.4,88.9,0,0,0,0,0,0,997.4,1011
53,2021-05-24T00:52:00,1.1,南南西,2.7,南南西,18.4,88.9,0,0,0,0,0,0,997.4,1011
54,2021-05-24T00:53:00,1.2,南南西,2.7,南南西,18.5,89.1,0,0,0,0,0,0,997.4,1011
55,2021-05-24T00:54:00,1.3,南南西,2.7,南南西,18.3,88.6,0,0,0,0,0,0,997.4,1011
56,2021-05-24T00:55:00,1.3,南南西,2.7,南南西,18.3,88.2,0,0,0,0,0,0,997.4,1011
57,2021-05-24T00:56:00,1.4,南南西,2.7,南南西,18.3,88.5,0,0,0,0,0,0,997.4,1011
58,2021-05-24T00:57:00,1.5,南南西,2.7,南南西,18.3,88.8,0,0,0,0,0,0,997.3,1010.9
59,2021-05-24T00:58:00,1.5,南南西,2.7,南南西,18.5,89.5,0,0,0,0,0,0,997.3,1010.9
60,2021-05-24T00:59:00,1.6,南南西,2.5,南南西,18.5,89.2,0,0,0,0,0,0,997.3,1010.9
61,2021-05-24T01:00:00,1.7,南南西,2.5,南南西,18.4,88.8,0,0,0,0,0,0,997.3,1010.9
62,2021-05-24T01:01:00,1.8,南南西,2.6,南南西,18.3,88.4,0,0,0,0,0,0,997.3,1010.9
63,2021-05-24T01:02:00,1.8,南南西,2.6,南南西,18.3,88.7,0,0,0,0,0,0,997.3,1010.9
64,2021-05-24T01:03:00,1.9,南南西,2.6,南南西,18.3,88.7,0,0,0,0,0,0,997.3,1010.9
65,2021-05-24T01:04:00,1.8,南南西,2.7,南,18.2,88.7,0,0,0,0,0,0,997.3,1010.9
66,2021-05-24T01:05:00,1.9,南南西,2.7,南,18.2,88.9,0,0,0,0,0,0,997.3,1010.9
67,2021-05-24T01:06:00,1.9,南南西,2.7,南,18.2,89,0,0,0,0,0,0,997.3,1010.9
68,2021-05-24T01:07:00,2,南南西,2.7,南,18.2,89.3,0,0,0,0,0,0,997.3,1010.9
69,2021-05-24T01:08:00,2,南南西,2.7,南,18.2,89.5,0,0,0,0,0,0,997.3,1010.9
70,2021-05-24T01:09:00,2,南南西,2.7,南,18.3,89.6,0,0,0,0,0,0,997.3,1010.9
71,2021-05-24T01:10:00,2,南南西,2.9,南,18.3,89.4,0,0,0,0,0,0,997.3,1010.9
72,2021-05-24T01:11:00,2.1,南南西,3,南,18.4,89.2,0,0,0,0,0,0,997.2,1010.8
73,2021-05-24T01:12:00,2,南,3,南,18.4,88.3,0,0,0,0,0,0,997.2,1010.8
74,2021-05-24T01:13:00,2,南,3,南,18.5,87.3,0,0,0,0,0,0,997.2,1010.8
75,2021-05-24T01:14:00,1.9,南,3,南,18.5,86.9,0,0,0,0,0,0,997.2,1010.8
76,2021-05-24T01:15:00,1.8,南,3,南,18.5,86.6,0,0,0,0,0,0,997.3,1010.9
77,2021-05-24T01:16:00,1.7,南,3,南,18.5,86.6,0,0,0,0,0,0,997.3,1010.9
78,2021-05-24T01:17:00,1.6,南,3,南,18.5,86.6,0,0,0,0,0,0,997.3,1010.9
79,2021-05-24T01:18:00,1.4,南南西,3,南,18.5,86.7,0,0,0,0,0,0,997.3,1010.9
80,2021-05-24T01:19:00,1.3,南南西,3,南,18.5,86.9,0,0,0,0,0,0,997.3,1010.9
81,2021-05-24T01:20:00,1.1,南南西,3,南,18.6,87.1,0,0,0,0,0,0,997.4,1011
82,2021-05-24T01:21:00,1,南南西,2.7,南,18.8,87.5,0,0,0,0,0,0,997.4,1011
83,2021-05-24T01:22:00,0.8,南南西,2.4,南,18.5,86.7,0,0,0,0,0,0,997.4,1011
84,2021-05-24T01:23:00,0.7,南西,2,南,18.6,86.7,0,0,0,0,0,0,997.4,1011
85,2021-05-24T01:24:00,0.7,南西,2,南,18.2,86.8,0,0,0,0,0,0,997.4,1011
86,2021-05-24T01:25:00,0.6,南西,1.4,南,18.2,86.8,0,0,0,0,0,0,997.3,1010.9
87,2021-05-24T01:26:00,0.5,南西,1.4,南,18.3,87.9,0,0,0,0,0,0,997.2,1010.8
88,2021-05-24T01:27:00,0.4,南西,1.1,西北西,18.4,88.4,0,0,0,0,0,0,997.2,1010.8
89,2021-05-24T01:28:00,0.4,南西,1.1,西北西,18.5,88.5,0,0,0,0,0,0,997.1,1010.7
90,2021-05-24T01:29:00,0.4,南西,1.1,西北西,18.5,88.2,0,0,0,0,0,0,997,1010.6
91,2021-05-24T01:30:00,0.3,南西,1.1,西北西,18.6,88.1,0,0,0,0,0,0,997,1010.6
92,2021-05-24T01:31:00,0.3,南西,1.1,西北西,18.4,87.5,0,0,0,0,0,0,997,1010.6
93,2021-05-24T01:32:00,0.3,南南西,0.8,南南西,18.3,87.3,0,0,0,0,0,0,997,1010.6
94,2021-05-24T01:33:00,0.2,静穏,0.9,南南西,18.3,88,0,0,0,0,0,0,997,1010.6
95,2021-05-24T01:34:00,0.3,南,1,南南西,18.3,88,0,0,0,0,0,0,996.9,1010.5
96,2021-05-24T01:35:00,0.3,南,1,南南西,18.5,89,0,0,0,0,0,0,997,1010.6
97,2021-05-24T01:36:00,0.3,南,1.1,南南西,18.3,88.3,0,0,0,0,0,0,997,1010.6
98,2021-05-24T01:37:00,0.4,南南西,1.5,南南西,18.2,88.1,0,0,0,0,0,0,997,1010.6
99,2021-05-24T01:38:00,0.5,南南西,1.5,南南西,18.3,88.4,0,0,0,0,0,0,997.1,1010.7
100,2021-05-24T01:39:00,0.6,南南西,1.9,南南西,18.3,88.6,0,0,0,0,0,0,997.1,1010.7
101,2021-05-24T01:40:00,0.7,南南西,1.9,南南西,18.2,88.9,0,0,0,0,0,0,997.2,1010.8
102,2021-05-24T01:41:00,0.8,南南西,2.1,南南西,18.2,88.7,0,0,0,0,0,0,997.2,1010.8
103,2021-05-24T01:42:00,0.8,南南西,2.1,南南西,18.2,89,0,0,0,0,0,0,997.2,1010.8
104,2021-05-24T01:43:00,0.9,南南西,2.1,南南西,18,88.7,0,0,0,0,0,0,997.3,1010.9
105,2021-05-24T01:44:00,1,南西,2.1,南南西,18,89.1,0,0,0,0,0,0,997.2,1010.8
106,2021-05-24T01:45:00,1.1,南西,2.4,西,17.8,89,0,0,0,0,0,0,997.2,1010.8
107,2021-05-24T01:46:00,1.3,南西,2.7,西,17.9,89.7,0,0,0,0,0,0,997.3,1010.9
108,2021-05-24T01:47:00,1.4,西南西,2.7,西,17.8,90.3,0,0,0,0,0,0,997.3,1010.9
109,2021-05-24T01:48:00,1.5,西南西,2.7,西,17.8,90.5,0,0,0,0,0,0,997.3,1010.9
110,2021-05-24T01:49:00,1.5,西南西,2.7,西,17.8,91,0,0,0,0,0,0,997.2,1010.8
111,2021-05-24T01:50:00,1.6,西南西,2.7,西,17.7,91.1,0,0,0,0,0,0,997.2,1010.9
112,2021-05-24T01:51:00,1.6,西南西,2.7,西,17.6,91.3,0,0,0,0,0,0,997.2,1010.9
113,2021-05-24T01:52:00,1.7,西,2.7,西,17.5,91.5,0,0,0,0,0,0,997.2,1010.9
114,2021-05-24T01:53:00,1.7,西,2.7,西,17.7,92.2,0,0,0,0,0,0,997.2,1010.9
115,2021-05-24T01:54:00,1.7,西,2.7,西,17.6,92.3,0,0,0,0,0,0,997.2,1010.9
116,2021-05-24T01:55:00,1.7,西南西,2.7,西,17.8,92.8,0,0,0,0,0,0,997.3,1010.9
117,2021-05-24T01:56:00,1.6,西南西,2.5,西,17.9,92.8,0,0,0,0,0,0,997.2,1010.8
118,2021-05-24T01:57:00,1.5,西南西,2.4,西南西,17.8,91.6,0,0,0,0,0,0,997.3,1010.9
119,2021-05-24T01:58:00,1.6,西南西,2.5,西南西,17.7,91.2,0,0,0,0,0,0,997.2,1010.9
120,2021-05-24T01:59:00,1.6,西南西,2.5,西南西,17.7,91.1,0,0,0,0,0,0,997.2,1010.9
121,2021-05-24T02:00:00,1.6,西南西,2.5,西南西,17.6,90.9,0,0,0,0,0,0,997.1,1010.8
122,2021-05-24T02:01:00,1.5,西南西,2.5,西南西,17.6,91.2,0,0,0,0,0,0,997.1,1010.8
123,2021-05-24T02:02:00,1.4,西南西,2.5,西南西,17.7,91.6,0,0,0,0,0,0,997,1010.6
124,2021-05-24T02:03:00,1.4,西南西,2.5,西南西,17.7,91.7,0,0,0,0,0,0,997,1010.6
125,2021-05-24T02:04:00,1.4,西南西,2.5,西南西,17.7,91.7,0,0,0,0,0,0,997,1010.6
126,2021-05-24T02:05:00,1.3,西南西,2.5,西南西,17.8,91.3,0,0,0,0,0,0,996.9,1010.5
127,2021-05-24T02:06:00,1.3,西南西,2.5,西南西,17.7,91.2,0,0,0,0,0,0,996.8,1010.4
128,2021-05-24T02:07:00,1.2,西,2.5,西南西,17.8,91.4,0,0,0,0,0,0,996.8,1010.4
129,2021-05-24T02:08:00,1,西,2.3,南西,17.8,91.4,0,0,0,0,0,0,996.8,1010.4
130,2021-05-24T02:09:00,0.9,西北西,2,西南西,17.8,91.1,0,0,0,0,0,0,996.7,1010.3
131,2021-05-24T02:10:00,0.8,西北西,1.8,西南西,17.9,91.3,0,0,0,0,0,0,996.8,1010.4
132,2021-05-24T02:11:00,0.7,北西,1.6,西,18,91.6,0,0,0,0,0,0,996.8,1010.4
133,2021-05-24T02:12:00,0.7,北北西,1.6,西,18.2,91.6,0,0,0,0,0,0,996.8,1010.4
134,2021-05-24T02:13:00,0.6,北北西,1.6,西,18.2,90.7,0,0,0,0,0,0,996.8,1010.4
135,2021-05-24T02:14:00,0.5,北北西,1.6,西,18.1,89.9,0,0,0,0,0,0,996.8,1010.4
136,2021-05-24T02:15:00,0.5,北,1.5,西北西,18.1,89.5,0,0,0,0,0,0,996.7,1010.3
137,2021-05-24T02:16:00,0.6,北,1.8,西北西,18,89.3,0,0,0,0,0,0,996.7,1010.3
138,2021-05-24T02:17:00,0.6,北北西,1.8,西北西,18.1,89.2,0,0,0,0,0,0,996.7,1010.3
139,2021-05-24T02:18:00,0.6,北北西,1.8,西北西,18,89.3,0,0,0,0,0,0,996.7,1010.3
140,2021-05-24T02:19:00,0.7,北北西,1.8,西北西,17.9,89,0,0,0,0,0,0,996.7,1010.3
141,2021-05-24T02:20:00,0.8,北西,1.8,西北西,17.9,89.4,0,0,0,0,0,0,996.7,1010.3
142,2021-05-24T02:21:00,0.8,北西,1.8,西北西,17.7,89.3,0,0,0,0,0,0,996.7,1010.3
143,2021-05-24T02:22:00,0.8,北西,1.8,西北西,17.6,89.5,0,0,0,0,0,0,996.7,1010.3
144,2021-05-24T02:23:00,0.7,北西,1.8,西北西,17.7,90.4,0,0,0,0,0,0,996.7,1010.3
145,2021-05-24T02:24:00,0.7,西北西,1.8,西北西,17.7,90.8,0,0,0,0,0,0,996.7,1010.3
146,2021-05-24T02:25:00,0.6,西北西,1.8,西北西,17.7,90.9,0,0,0,0,0,0,996.7,1010.3
147,2021-05-24T02:26:00,0.5,西北西,1.7,西北西,17.6,91.1,0,0,0,0,0,0,996.8,1010.5
148,2021-05-24T02:27:00,0.4,北西,1.3,西,17.7,91.2,0,0,0,0,0,0,996.8,1010.4
149,2021-05-24T02:28:00,0.3,北北東,1.3,西,17.9,92,0,0,0,0,0,0,996.8,1010.4
150,2021-05-24T02:29:00,0.2,静穏,0.9,北西,18,91.8,0,0,0,0,0,0,996.8,1010.4
151,2021-05-24T02:30:00,0.2,静穏,0.7,西北西,17.8,91.4,0,0,0,0,0,0,996.8,1010.4
152,2021-05-24T02:31:00,0.2,静穏,0.6,南南東,17.9,91.1,0,0,0,0,0,0,996.8,1010.4
153,2021-05-24T02:32:00,0.2,静穏,0.6,南南東,17.8,90.9,0,0,0,0,0,0,996.9,1010.5
154,2021-05-24T02:33:00,0.2,静穏,0.6,南南東,17.8,90.8,0,0,0,0,0,0,996.9,1010.5
155,2021-05-24T02:34:00,,"",,"",,,,,,,,,,
156,2021-05-24T02:35:00,0.3,北,1.4,西,17.8,90.9,0,0,0,0,0,0,996.9,1010.5
157,2021-05-24T02:36:00,0.4,北北西,1.6,西,17.7,90.8,0,0,0,0,0,0,996.9,1010.5
158,2021-05-24T02:37:00,0.6,北西,2,西南西,17.4,90.5,0,0,0,0,0,0,996.9,1010.6
159,2021-05-24T02:38:00,0.7,西北西,2,西南西,17.2,90.2,0,0,0,0,0,0,997,1010.7
160,2021-05-24T02:39:00,0.8,西北西,2,西南西,17.3,91.1,0,0,0,0,0,0,997,1010.7
161,2021-05-24T02:40:00,0.9,西,2,西南西,17.4,92.2,0,0,0,0,0,0,997,1010.7
162,2021-05-24T02:41:00,1,西,2,西南西,17.3,92.4,0,0,0,0,0,0,997.1,1010.8
163,2021-05-24T02:42:00,1.2,西南西,2,西南西,17.3,92.4,0,0,0,0,0,0,997.2,1010.9
164,2021-05-24T02:43:00,1.4,西南西,2.7,西南西,17.3,92.6,0,0,0,0,0,0,997.2,1010.9
165,2021-05-24T02:44:00,1.5,西南西,2.7,西南西,17.2,92.4,0,0,0,0,0,0,997.2,1010.9
166,2021-05-24T02:45:00,1.5,南西,2.7,西南西,17.1,92.6,0,0,0,0,0,0,997.2,1010.9
167,2021-05-24T02:46:00,1.5,南西,2.7,西南西,17.2,92.9,0,0,0,0,0,0,997.2,1010.9
168,2021-05-24T02:47:00,1.4,南西,2.7,西南西,17.2,93.1,0,0,0,0,0,0,997.2,1010.9
169,2021-05-24T02:48:00,1.4,南西,2.7,西南西,17.1,93,0,0,0,0,0,0,997.2,1010.9
170,2021-05-24T02:49:00,1.3,南西,2.7,西南西,17.2,93,0,0,0,0,0,0,997.1,1010.8
171,2021-05-24T02:50:00,1.3,南西,2.7,西南西,17.3,93.3,0,0,0,0,0,0,997.1,1010.8
172,2021-05-24T02:51:00,1.3,西南西,2.7,西南西,17.2,93,0,0,0,0,0,0,997.1,1010.8
173,2021-05-24T02:52:00,1.3,西南西,2.7,西南西,17.2,92.9,0,0,0,0,0,0,997.1,1010.8
174,2021-05-24T02:53:00,1.1,南西,2.4,南西,17.2,93.1,0,0,0,0,0,0,997.1,1010.8
175,2021-05-24T02:54:00,1,南西,2.2,西南西,17.3,93.1,0,0,0,0,0,0,997.1,1010.8
176,2021-05-24T02:55:00,0.9,南西,2.2,西南西,17.3,93.1,0,0,0,0,0,0,997.1,1010.8
177,2021-05-24T02:56:00,0.9,南西,2.2,西南西,17.2,92.7,0,0,0,0,0,0,997.1,1010.8
178,2021-05-24T02:57:00,0.8,南西,2.2,西南西,17.2,92.9,0,0,0,0,0,0,997,1010.7
179,2021-05-24T02:58:00,0.8,南西,2.2,西南西,17.1,92.8,0,0,0,0,0,0,997,1010.7
180,2021-05-24T02:59:00,0.8,南西,2.2,西南西,17.2,92.9,0,0,0,0,0,0,997,1010.7
181,2021-05-24T03:00:00,0.7,南南西,2,西南西,17.3,93.6,0,0,0,0,0,0,997,1010.7
182,2021-05-24T03:01:00,0.5,南南西,1.8,南,17.4,93.4,0,0,0,0,0,0,997,1010.7
183,2021-05-24T03:02:00,0.5,南西,1.8,南,17.3,93.4,0,0,0,0,0,0,997,1010.7
184,2021-05-24T03:03:00,0.5,南西,1.8,南,17.1,92.3,0,0,0,0,0,0,997,1010.7
185,2021-05-24T03:04:00,0.6,南西,1.8,南,17.2,92.4,0,0,0,0,0,0,997,1010.7
186,2021-05-24T03:05:00,0.7,西南西,1.7,南南西,17.4,92.7,0,0,0,0,0,0,997,1010.7
187,2021-05-24T03:06:00,0.7,西南西,1.6,西北西,17.6,93.3,0,0,0,0,0,0,997,1010.7
188,2021-05-24T03:07:00,0.7,西,1.6,西北西,17.7,93.2,0,0,0,0,0,0,997,1010.6
189,2021-05-24T03:08:00,0.7,西,1.6,西北西,17.6,92.3,0,0,0,0,0,0,996.9,1010.6
190,2021-05-24T03:09:00,0.8,西北西,1.6,西北西,17.5,91.8,0,0,0,0,0,0,996.9,1010.6
191,2021-05-24T03:10:00,0.8,西北西,1.6,西北西,17.4,91.4,0,0,0,0,0,0,996.9,1010.6
192,2021-05-24T03:11:00,0.7,西北西,1.6,西北西,17.3,91.5,0,0,0,0,0,0,996.9,1010.6
193,2021-05-24T03:12:00,0.7,西北西,1.6,西北西,17.2,91.3,0,0,0,0,0,0,996.9,1010.6
194,2021-05-24T03:13:00,0.7,北西,1.6,西北西,17.3,91.6,0,0,0,0,0,0,996.9,1010.6
195,2021-05-24T03:14:00,0.5,北西,1.5,西北西,17.4,92.2,0,0,0,0,0,0,996.9,1010.6
196,2021-05-24T03:15:00,0.4,北西,1.2,西北西,17.2,92,0,0,0,0,0,0,996.9,1010.6
197,2021-05-24T03:16:00,0.3,北西,1.1,西北西,17.3,92.3,0,0,0,0,0,0,996.9,1010.6
198,2021-05-24T03:17:00,0.3,北西,0.9,北西,17.5,92.5,0,0,0,0,0,0,996.9,1010.6
199,2021-05-24T03:18:00,0.2,静穏,1.2,西,17.2,92,0,0,0,0,0,0,997,1010.7
200,2021-05-24T03:19:00,0.3,西北西,2,西,17.2,91.9,0,0,0,0,0,0,997,1010.7
201,2021-05-24T03:20:00,0.4,西北西,2,西,17.1,91.8,0,0,0,0,0,0,997,1010.7
202,2021-05-24T03:21:00,0.6,西,2,西,17.1,91.8,0,0,0,0,0,0,997,1010.7
203,2021-05-24T03:22:00,0.7,西,2,西,17.1,92.5,0,0,0,0,0,0,997,1010.7
204,2021-05-24T03:23:00,0.8,西北西,2,西,17.3,93,0,0,0,0,0,0,997,1010.7
205,2021-05-24T03:24:00,0.9,西北西,2,西,17.4,93.2,0,0,0,0,0,0,997,1010.7
206,2021-05-24T03:25:00,1,西,2,西,17.3,93,0,0,0,0,0,0,997,1010.7
207,2021-05-24T03:26:00,1.1,西,2,西,17.1,92.4,0,0,0,0,0,0,997,1010.7
208,2021-05-24T03:27:00,1.1,西,2,西,17,91.6,0,0,0,0,0,0,997,1010.7
209,2021-05-24T03:28:00,1.2,西,2,西,17.1,92.5,0,0,0,0,0,0,997,1010.7
210,2021-05-24T03:29:00,1,西,1.9,西,17,92.8,0,0,0,0,0,0,997,1010.7
211,2021-05-24T03:30:00,0.9,西北西,1.8,西北西,17.1,93.1,0,0,0,0,0,0,997,1010.7
212,2021-05-24T03:31:00,0.7,西北西,1.6,西北西,17.1,93.2,0,0,0,0,0,0,997.1,1010.8
213,2021-05-24T03:32:00,0.6,西北西,1.4,西,17.3,93.7,0,0,0,0,0,0,997.1,1010.8
214,2021-05-24T03:33:00,0.5,北西,1.4,西,17.3,93.7,0,0,0,0,0,0,997.1,1010.8
215,2021-05-24T03:34:00,0.5,北西,1.4,西,17.4,93.5,0,0,0,0,0,0,997.1,1010.8
216,2021-05-24T03:35:00,0.5,北北西,1.5,北東,17.4,93.2,0,0,0,0,0,0,997.1,1010.8
217,2021-05-24T03:36:00,0.5,北,1.5,北東,17.4,92.9,0,0,0,0,0,0,997,1010.7
218,2021-05-24T03:37:00,0.5,北,1.5,北東,17.4,92.7,0,0,0,0,0,0,997,1010.7
219,2021-05-24T03:38:00,0.5,北北東,1.5,北東,17.4,92.4,0,0,0,0,0,0,997,1010.7
220,2021-05-24T03:39:00,0.6,北北東,1.7,北北東,17.5,92.5,0,0,0,0,0,0,997,1010.7
221,2021-05-24T03:40:00,0.7,北北東,1.7,北北東,17.6,92.7,0,0,0,0,0,0,997,1010.7
222,2021-05-24T03:41:00,0.8,北北東,1.7,北北東,17.2,91.5,0,0,0,0,0,0,997,1010.7
223,2021-05-24T03:42:00,0.9,北北東,1.7,北北東,17.1,91,0,0,0,0,0,0,997,1010.7
224,2021-05-24T03:43:00,0.9,北北東,1.7,北北東,17.1,91.2,0,0,0,0,0,0,997,1010.7
225,2021-05-24T03:44:00,0.9,北北東,1.7,北北東,17.1,91.6,0,0,0,0,0,0,997,1010.7
226,2021-05-24T03:45:00,0.8,北北東,1.7,北北東,17.2,92.4,0,0,0,0,0,0,997,1010.7
227,2021-05-24T03:46:00,0.8,北北東,1.7,北北東,17.2,92.6,0,0,0,0,0,0,997,1010.7
228,2021-05-24T03:47:00,0.8,北北東,1.7,北北東,17.2,92.6,0,0,0,0,0,0,997,1010.7
229,2021-05-24T03:48:00,0.9,北北東,1.7,北北東,17.2,92.7,0,0,0,0,0,0,997,1010.7
230,2021-05-24T03:49:00,0.8,北北東,1.6,北,17.2,92.7,0,0,0,0,0,0,997,1010.7
231,2021-05-24T03:50:00,0.7,北北東,1.6,北,17.2,92.7,0,0,0,0,0,0,997,1010.7
232,2021-05-24T03:51:00,0.7,北北東,1.6,北,17.3,92.8,0,0,0,0,0,0,997,1010.7
233,2021-05-24T03:52:00,0.7,北北東,1.6,北,17.2,92.9,0,0,0,0,0,0,997,1010.7
234,2021-05-24T03:53:00,0.8,北北東,1.6,北,17.2,92.9,0,0,0,0,0,0,997,1010.7
235,2021-05-24T03:54:00,0.8,北北東,1.6,北,17.2,92.9,0,0,0,0,0,0,997,1010.7
236,2021-05-24T03:55:00,0.9,北北東,1.6,北,17.2,93,0,0,0,0,0,0,997,1010.7
237,2021-05-24T03:56:00,0.9,北北東,1.6,北,17.2,93,0,0,0,0,0,0,997,1010.7
238,2021-05-24T03:57:00,0.8,北北東,1.6,北北東,17.3,93.1,0,0,0,0,0,0,997,1010.7
239,2021-05-24T03:58:00,0.7,北北東,1.6,北北東,17.4,93.4,0,0,0,0,0,0,997,1010.7
240,2021-05-24T03:59:00,0.7,北,1.6,北北東,17.4,93.6,0,0,0,0,0,0,997,1010.7
241,2021-05-24T04:00:00,0.8,北北東,1.6,北北東,17.3,92.8,0,0,0,0,0,0,997,1010.7
242,2021-05-24T04:01:00,0.7,北北東,1.6,北北東,17.1,92.3,0,0,0,0,0,0,997,1010.7
243,2021-05-24T04:02:00,0.6,北,1.6,北北東,17.1,92.2,0,0,0,0,0,0,997,1010.7
244,2021-05-24T04:03:00,0.5,北,1.3,北,17.1,92.4,0,0,0,0,0,0,997,1010.7
245,2021-05-24T04:04:00,0.5,北,1.3,北,17,92.5,0,0,0,0,0,0,997,1010.7
246,2021-05-24T04:05:00,0.4,北,1.2,北,17.2,93.1,0,0,0,0,0,0,997,1010.7
247,2021-05-24T04:06:00,0.4,北北西,1,西北西,17.1,93.3,0,0,0,0,0,0,997,1010.7
248,2021-05-24T04:07:00,0.4,北北西,1,西北西,17.3,93.8,0,0,0,0,0,0,997,1010.7
249,2021-05-24T04:08:00,0.5,北北西,1.7,西北西,17.4,93.7,0,0,0,0,0,0,997,1010.7
250,2021-05-24T04:09:00,0.6,北西,1.8,西,16.9,92.3,0,0,0,0,0,0,997,1010.7
251,2021-05-24T04:10:00,0.7,北西,1.8,西,16.7,91.4,0,0,0,0,0,0,997,1010.7
252,2021-05-24T04:11:00,0.8,西北西,1.8,西,16.8,92.1,0,0,0,0,0,0,997,1010.7
253,2021-05-24T04:12:00,0.9,西北西,1.8,西,16.8,92.8,0,0,0,0,0,0,997,1010.7
254,2021-05-24T04:13:00,1,西北西,1.8,西,16.7,93.4,0,0,0,0,0,0,997,1010.7
255,2021-05-24T04:14:00,1.1,西,1.8,西,16.5,92.9,0,0,0,0,0,0,997,1010.7
256,2021-05-24T04:15:00,1.1,西,1.8,西,16.4,93.3,0,0,0,0,0,0,997,1010.7
257,2021-05-24T04:16:00,1.1,西,1.8,西,16.4,94,0,0,0,0,0,0,997.1,1010.8
258,2021-05-24T04:17:00,1.1,西南西,1.8,西,16.7,95,0,0,0,0,0,0,997.1,1010.8
259,2021-05-24T04:18:00,1,西南西,1.8,西,16.9,95.6,0,0,0,0,0,0,997.1,1010.8
260,2021-05-24T04:19:00,0.9,西南西,1.7,西,16.9,95.7,0,0,0,0,0,0,997.1,1010.8
261,2021-05-24T04:20:00,0.8,南西,1.7,西,17.1,95.7,0,0,0,0,0,0,997.1,1010.8
262,2021-05-24T04:21:00,0.6,南西,1.7,西,17,95.3,0,0,0,0,0,0,997.1,1010.8
263,2021-05-24T04:22:00,0.6,南西,1.5,南西,17,95,0,0,0,0,0,0,997.1,1010.8
264,2021-05-24T04:23:00,0.5,南西,1.3,南西,17,94.6,0,0,0,0,0,0,997,1010.7
265,2021-05-24T04:24:00,0.6,西南西,1.9,西,16.9,94,0,0,0,0,0,0,997,1010.7
266,2021-05-24T04:25:00,0.6,西南西,1.9,西,16.8,93.8,0,0,0,0,0,0,997,1010.7
267,2021-05-24T04:26:00,0.7,西南西,1.9,西,16.7,93.2,0,0,0,0,0,0,997,1010.7
268,2021-05-24T04:27:00,0.7,西南西,1.9,西,16.7,93.5,0,0,0,0,0,0,997,1010.7
269,2021-05-24T04:28:00,0.8,西,1.9,西,16.9,93.9,0,0,0,0,0,0,996.9,1010.6
270,2021-05-24T04:29:00,0.8,西,1.9,西,16.8,93.6,0,0,0,0,0,0,996.9,1010.6
271,2021-05-24T04:30:00,0.8,西,1.9,西,17,94.2,0,0,0,0,0,0,996.9,1010.6
272,2021-05-24T04:31:00,0.7,西,1.9,西,17.1,94.2,0,0,0,0,0,0,996.9,1010.6
273,2021-05-24T04:32:00,0.7,西南西,1.9,西,17,93.8,0,0,0,0,0,0,996.9,1010.6
274,2021-05-24T04:33:00,0.7,西南西,1.9,西,16.9,93.3,0,0,0,0,0,0,996.9,1010.6
275,2021-05-24T04:34:00,0.6,西南西,1.8,西,17,93.4,0,0,0,0,0,0,996.8,1010.5
276,2021-05-24T04:35:00,0.5,北北西,1.6,西,17,93.2,0,0,0,0,0,0,996.8,1010.5
277,2021-05-24T04:36:00,0.4,北東,1.4,西,17.1,93.5,0,0,0,0,0,0,996.7,1010.4
278,2021-05-24T04:37:00,0.3,北東,0.9,西北西,17.1,93.3,0,0,0,0,0,0,996.7,1010.4
279,2021-05-24T04:38:00,0.3,北東,0.8,北東,17.1,93.3,0,0,0,0,0,0,996.6,1010.3
280,2021-05-24T04:39:00,0.3,北東,0.8,北東,17.2,92.9,0,0,0,0,0,0,996.6,1010.3
281,2021-05-24T04:40:00,0.3,北北東,0.8,北東,17.1,92.6,0,0,0,0,0,0,996.5,1010.2
282,2021-05-24T04:41:00,0.4,北北東,0.8,北東,17.1,92.2,0,0,0,0,0,0,996.5,1010.2
283,2021-05-24T04:42:00,0.4,北北東,0.8,北東,17.2,92.3,0,0,0,0,0,0,996.5,1010.2
284,2021-05-24T04:43:00,0.5,北,1,北北東,17.5,92.7,0,0,0,0,0,0,996.5,1010.2
285,2021-05-24T04:44:00,0.5,北,1,北北東,17.2,91.9,0,0,0,0,0,0,996.5,1010.2
286,2021-05-24T04:45:00,0.5,北,1,北北東,17.2,91.2,0,0,0,0,0,0,996.5,1010.2
287,2021-05-24T04:46:00,0.5,北,1,北北東,17.2,91.4,0,0,0,0,0,0,996.5,1010.2
288,2021-05-24T04:47:00,0.5,北北西,1,北北東,17.2,91.6,0,0,0,0,0,0,996.6,1010.3
289,2021-05-24T04:48:00,0.4,北北西,1,北北東,17.1,91.1,0,0,0,0,0,0,996.6,1010.3
290,2021-05-24T04:49:00,0.5,北北西,1,北北東,17,91.4,0,0,0,0,0,0,996.6,1010.3
291,2021-05-24T04:50:00,0.5,北北西,1.6,西南西,16.9,91.5,0,0,0,0,0,0,996.7,1010.4
292,2021-05-24T04:51:00,0.6,北西,1.6,西南西,16.7,91.2,0,0,0,0,0,0,996.7,1010.4
293,2021-05-24T04:52:00,0.6,西北西,1.6,西南西,16.7,91.8,0,0,0,0,0,0,996.7,1010.4
294,2021-05-24T04:53:00,0.7,西北西,1.6,西南西,16.6,92.2,0,0,0,0,0,0,996.8,1010.5
295,2021-05-24T04:54:00,0.7,西,1.6,西南西,16.6,92.7,0,0,0,0,0,0,996.8,1010.5
296,2021-05-24T04:55:00,0.7,西,1.6,西南西,16.8,93.9,0,0,0,0,0,0,996.8,1010.5
297,2021-05-24T04:56:00,0.7,西南西,1.6,西南西,16.6,93.8,0,0,0,0,0,0,996.8,1010.5
298,2021-05-24T04:57:00,0.8,西南西,1.6,西南西,16.5,93.5,0,0,0,0,0,0,996.8,1010.5
299,2021-05-24T04:58:00,0.9,南西,1.6,西南西,16.7,94.3,0,0,0,0,0,0,996.8,1010.5
300,2021-05-24T04:59:00,1,南西,1.6,西南西,16.7,94.7,0,0,0,0,0,0,996.8,1010.5
301,2021-05-24T05:00:00,1,南西,1.8,南南西,16.8,94.9,0,0,0,0,0,0,996.8,1010.5
302,2021-05-24T05:01:00,1,南西,1.8,南南西,16.9,94.6,0,0,0,0,0,0,996.8,1010.5
303,2021-05-24T05:02:00,1.1,南西,1.8,南南西,16.7,94.6,0,0,0,0,0,0,996.7,1010.4
304,2021-05-24T05:03:00,1,南西,1.8,南南西,16.9,94,0,0,0,0,0,0,996.6,1010.3
305,2021-05-24T05:04:00,1,南西,1.8,南南西,16.9,94.8,0,0,0,0,0,0,996.6,1010.3
306,2021-05-24T05:05:00,1,南西,1.8,南南西,16.8,93.8,0,0,0,0,0,0,996.5,1010.2
307,2021-05-24T05:06:00,0.9,南西,1.8,南南西,16.8,94.1,0,0,0,0,0,0,996.6,1010.3
308,2021-05-24T05:07:00,1,南西,1.8,南南西,16.8,93.9,0,0,0,0,0,0,996.7,1010.4
309,2021-05-24T05:08:00,1,南西,1.8,南南西,16.7,93.7,0,0,0,0,0,0,996.8,1010.5
310,2021-05-24T05:09:00,1,南西,2.3,南南西,16.8,94.2,0,0,0,0,0,0,996.8,1010.5
311,2021-05-24T05:10:00,1.1,南西,2.5,西南西,16.7,93.8,0,0,0,0,0,0,996.8,1010.5
312,2021-05-24T05:11:00,1.1,南西,2.6,南西,16.6,93.7,0,0,0,0,0,0,996.8,1010.5
313,2021-05-24T05:12:00,1.2,南西,2.6,南西,16.7,94.3,0,0,0,0,0,0,996.8,1010.5
314,2021-05-24T05:13:00,1.2,南西,2.6,南西,16.7,94.4,0,0,0,0,0,0,996.8,1010.5
315,2021-05-24T05:14:00,1.3,南西,2.6,南西,16.7,94.5,0,0,0,0,0,0,996.8,1010.5
316,2021-05-24T05:15:00,1.3,南西,2.6,南西,16.9,94.9,0,0,0,0,0,0,996.7,1010.4
317,2021-05-24T05:16:00,1.3,南南西,2.6,南西,16.8,94.8,0,0,0,0,0,0,996.7,1010.4
318,2021-05-24T05:17:00,1.2,南西,2.6,南西,16.9,94.9,0,0,0,0,0,0,996.6,1010.3
319,2021-05-24T05:18:00,1.1,南西,2.6,南西,17,95.2,0,0,0,0,0,0,996.6,1010.3
320,2021-05-24T05:19:00,1,南西,2.6,南西,17.2,95.1,0,0,0,0,0,0,996.6,1010.3
321,2021-05-24T05:20:00,0.8,南西,2.6,南西,17.5,95.3,0,0,0,0,0.01,0,996.5,1010.2
322,2021-05-24T05:21:00,0.7,南西,2,南南西,17.6,94.9,0,0,0,0,0.01,0,996.4,1010
323,2021-05-24T05:22:00,0.6,北西,1.9,南南西,17.7,94.3,0,0,0,0,0.01,0,996.4,1010
324,2021-05-24T05:23:00,0.6,北北東,1.5,西南西,17.6,93,0,0,0,0,0.01,0,996.3,1009.9
325,2021-05-24T05:24:00,0.5,北北東,1.2,南南西,17.3,91.7,0,0,0,0,0.01,0,996.3,1010
326,2021-05-24T05:25:00,0.4,北東,0.9,北東,17.2,90.8,0,0,0,0,0.01,0,996.4,1010.1
327,2021-05-24T05:26:00,0.4,北北東,0.9,北東,17.1,90.9,0,0,0,0,0.01,0,996.5,1010.2
328,2021-05-24T05:27:00,0.5,北東,1.3,南南西,17.2,91.2,0,0,0,0,0.01,0,996.6,1010.3
329,2021-05-24T05:28:00,0.5,北東,1.3,南南西,17.3,91.8,0,0,0,0,0.01,0,996.6,1010.3
330,2021-05-24T05:29:00,0.5,東北東,1.3,南南西,17.1,91.8,0,0,0,0,0.01,0,996.5,1010.2
331,2021-05-24T05:30:00,0.5,東,1.3,南南西,17,91.5,0,0,0,0,0.01,0,996.5,1010.2
332,2021-05-24T05:31:00,0.4,南東,1.3,南南西,17.1,92.1,0,0,0,0,0.02,0,996.6,1010.3